Weather reports worldwide

Advertisment
Asturias/Aviles, Spain (8011): temperature & dewpoint: 16.08.2019 20:00:00 - 22.08.2019 20:00:00 (CEST)Asturias/Aviles, Spain (8011): wind speed: 16.08.2019 20:00:00 - 22.08.2019 20:00:00 (CEST)Asturias/Aviles, Spain (8011): wind direction: 16.08.2019 20:00:00 - 22.08.2019 20:00:00 (CEST)Asturias/Aviles, Spain (8011): reduced air pressure: 16.08.2019 20:00:00 - 22.08.2019 20:00:00 (CEST)Asturias/Aviles, Spain (8011): visibility: 16.08.2019 20:00:00 - 22.08.2019 20:00:00 (CEST)
Date & Time tt [°C] td [°C] ff [km/h] ff [kn] dd ppp [hPa] vv [km]
22.08.2019 20:00:00 22,6 17,0 24 13 ESE 1019,7 25
22.08.2019 19:00:00 23,6 16,4 26 14 E 1020,1 -
22.08.2019 18:00:00 24,7 15,4 22 12 E 1020,4 -
22.08.2019 17:00:00 24,9 15,2 18 10 E 1020,8 25
22.08.2019 16:00:00 25,4 15,0 22 12 E 1020,8 -
22.08.2019 15:00:00 25,4 15,2 21 11 E 1021,1 -
22.08.2019 14:00:00 25,4 16,0 22 12 ESE 1021,6 20
22.08.2019 13:00:00 23,8 16,7 18 10 ENE 1022,3 -
22.08.2019 12:00:00 23,3 17,2 18 10 SE 1022,8 -
22.08.2019 11:00:00 21,5 17,1 16 9 ESE 1022,9 20
22.08.2019 10:00:00 20,3 17,1 18 10 SE 1023,0 -
22.08.2019 09:00:00 18,5 16,3 13 7 SE 1023,0 -
22.08.2019 08:00:00 15,1 14,3 11 6 SE 1022,9 18
22.08.2019 07:00:00 14,5 13,6 11 6 SSE 1022,6 -
22.08.2019 06:00:00 14,5 13,6 9 5 SE 1022,7 -
22.08.2019 05:00:00 15,1 14,5 11 6 SE 1022,5 -
22.08.2019 04:00:00 15,2 14,4 13 7 SE 1022,5 -
22.08.2019 03:00:00 16,5 15,6 11 6 SE 1022,6 -
22.08.2019 02:00:00 16,5 15,5 13 7 SE 1023,0 20
22.08.2019 01:00:00 16,2 15,1 13 7 ESE 1023,6 -
22.08.2019 00:00:00 17,2 16,1 15 8 SE 1023,6 -
21.08.2019 23:00:00 18,0 16,3 13 7 ESE 1023,8 20
21.08.2019 22:00:00 18,9 16,7 11 6 E 1023,5 -
21.08.2019 21:00:00 19,9 16,7 15 8 E 1022,9 -
21.08.2019 20:00:00 20,5 17,7 16 9 E 1022,4 25
21.08.2019 19:00:00 21,1 18,1 15 8 ENE 1022,3 -
21.08.2019 18:00:00 21,8 18,2 15 8 ENE 1022,1 -
21.08.2019 17:00:00 21,6 17,2 18 10 ENE 1022,2 30
21.08.2019 16:00:00 22,1 17,2 16 9 ENE 1022,1 -
21.08.2019 15:00:00 23,1 17,2 22 12 ENE 1022,2 -
21.08.2019 14:00:00 22,9 15,0 22 12 ENE 1022,3 30
21.08.2019 13:00:00 21,9 15,7 18 10 E 1022,3 -
21.08.2019 12:00:00 21,1 15,6 13 7 E 1022,8 -
21.08.2019 11:00:00 20,9 14,8 22 12 ESE 1022,7 25
21.08.2019 10:00:00 19,1 14,3 15 8 ESE 1022,6 -
21.08.2019 09:00:00 16,0 13,5 9 5 S 1022,7 -
21.08.2019 08:00:00 14,2 12,4 11 6 SE 1022,6 20
21.08.2019 07:00:00 14,8 12,8 9 5 SSE 1022,6 -
21.08.2019 06:00:00 15,3 13,3 13 7 SE 1022,4 -
21.08.2019 05:00:00 15,4 12,9 13 7 SE 1022,9 -
21.08.2019 04:00:00 16,3 13,2 15 8 SE 1023,1 -
21.08.2019 03:00:00 16,8 13,4 15 8 ESE 1023,6 -
21.08.2019 02:00:00 16,9 13,6 16 9 ESE 1023,9 25
21.08.2019 01:00:00 17,2 13,9 15 8 ESE 1024,1 -
21.08.2019 00:00:00 17,6 14,1 15 8 ESE 1024,3 -
20.08.2019 23:00:00 18,1 14,4 16 9 ESE 1024,5 25
20.08.2019 22:00:00 18,4 14,3 21 11 E 1024,0 -
20.08.2019 21:00:00 19,0 13,6 22 12 E 1023,9 -
20.08.2019 20:00:00 20,0 14,4 18 10 E 1023,5 30
20.08.2019 19:00:00 20,9 14,2 24 13 E 1023,6 -
20.08.2019 18:00:00 21,2 13,6 26 14 ENE 1023,5 -
20.08.2019 17:00:00 21,7 13,8 24 13 E 1023,7 30
20.08.2019 16:00:00 22,1 14,3 22 12 E 1024,2 -
20.08.2019 15:00:00 21,2 13,0 24 13 E 1024,5 -
20.08.2019 14:00:00 21,6 13,0 21 11 E 1024,7 30
20.08.2019 13:00:00 20,9 13,0 16 9 E 1025,1 -
20.08.2019 12:00:00 19,3 14,2 16 9 E 1025,2 -
20.08.2019 11:00:00 19,0 14,0 15 8 E 1024,8 25
20.08.2019 10:00:00 19,3 14,6 11 6 ESE 1024,5 -
20.08.2019 09:00:00 16,4 15,3 5 3 SE 1024,1 -
20.08.2019 08:00:00 14,8 13,8 8 4 S 1023,6 25
20.08.2019 07:00:00 15,4 14,4 4 2 SSE 1023,0 -
20.08.2019 06:00:00 15,7 14,6 9 5 SE 1022,8 -
20.08.2019 05:00:00 15,5 14,7 8 4 SE 1022,6 -
20.08.2019 04:00:00 15,5 14,6 13 7 SE 1022,8 -
20.08.2019 03:00:00 15,6 14,8 15 8 SE 1023,1 -
20.08.2019 02:00:00 16,3 14,0 8 4 SSW 1023,1 25
20.08.2019 01:00:00 17,7 13,0 9 5 E 1022,9 -
20.08.2019 00:00:00 18,1 13,2 13 7 E 1023,0 -
19.08.2019 23:00:00 18,1 13,0 9 5 E 1023,1 25
19.08.2019 22:00:00 18,2 12,4 13 7 E 1022,2 -
19.08.2019 21:00:00 18,4 12,7 13 7 E 1022,0 -
19.08.2019 20:00:00 18,7 12,9 11 6 ENE 1021,9 25
19.08.2019 19:00:00 19,2 13,1 13 7 ENE 1021,7 -
19.08.2019 18:00:00 20,0 12,8 16 9 ENE 1021,4 -
19.08.2019 17:00:00 20,1 12,9 18 10 ENE 1021,3 30
19.08.2019 16:00:00 20,3 12,6 18 10 ENE 1021,3 -
19.08.2019 15:00:00 21,1 13,0 18 10 ENE 1021,5 -
19.08.2019 14:00:00 19,9 12,0 13 7 ENE 1021,5 30
19.08.2019 13:00:00 20,1 12,9 13 7 ENE 1021,5 -
19.08.2019 12:00:00 19,1 13,5 9 5 ENE 1021,4 -
19.08.2019 11:00:00 18,7 13,7 5 3 NNE 1021,0 20
19.08.2019 10:00:00 17,0 14,3 8 4 SSW 1021,0 -
19.08.2019 09:00:00 15,3 13,7 9 5 SSW 1021,1 -
19.08.2019 08:00:00 14,7 13,2 9 5 SSW 1021,0 20
19.08.2019 07:00:00 14,8 13,5 9 5 SSW 1020,5 -
19.08.2019 06:00:00 15,2 13,7 8 4 SW 1020,2 -
19.08.2019 05:00:00 15,5 13,7 9 5 SSW 1020,6 -
19.08.2019 04:00:00 15,6 13,4 4 2 SW 1020,8 -
19.08.2019 03:00:00 15,5 13,9 11 6 SSW 1020,9 -
19.08.2019 02:00:00 15,6 13,8 8 4 SW 1021,1 10
19.08.2019 01:00:00 16,2 13,9 8 4 SSW 1021,0 -
19.08.2019 00:00:00 16,7 14,0 5 3 SW 1021,0 -
18.08.2019 23:00:00 17,0 13,1 5 3 WSW 1020,8 10
18.08.2019 22:00:00 17,6 12,9 5 3 NW 1019,8 -
18.08.2019 21:00:00 17,8 12,5 9 5 NW 1019,5 -
18.08.2019 20:00:00 18,2 13,0 8 4 NW 1019,0 10
18.08.2019 19:00:00 18,6 13,6 11 6 WNW 1018,8 -
18.08.2019 18:00:00 18,3 13,3 11 6 WNW 1018,5 -
18.08.2019 17:00:00 18,8 13,8 13 7 WNW 1018,0 -
18.08.2019 16:00:00 19,9 14,7 15 8 WNW 1017,8 -
18.08.2019 15:00:00 18,4 14,8 13 7 W 1017,4 -
18.08.2019 14:00:00 17,3 15,0 13 7 WNW 1017,5 8
18.08.2019 13:00:00 16,3 15,8 15 8 WNW 1017,4 -
18.08.2019 12:00:00 16,7 16,4 13 7 WNW 1016,4 -
18.08.2019 11:00:00 16,8 16,3 13 7 WNW 1015,9 6
18.08.2019 10:00:00 17,2 16,4 11 6 NW 1015,1 -
18.08.2019 09:00:00 17,0 16,7 11 6 NW 1014,3 -
18.08.2019 08:00:00 18,3 18,0 9 5 WNW 1012,8 2,5
18.08.2019 07:00:00 18,6 18,3 22 12 WNW 1011,5 -
18.08.2019 06:00:00 19,0 17,6 13 7 SW 1010,3 -
18.08.2019 05:00:00 18,9 17,5 8 4 SSW 1010,6 -
18.08.2019 04:00:00 18,8 17,6 9 5 SSW 1010,7 -
18.08.2019 03:00:00 18,3 17,0 5 3 SE 1011,2 -
18.08.2019 02:00:00 20,1 18,1 4 2 WNW 1011,3 20
18.08.2019 01:00:00 20,3 18,4 18 10 WNW 1011,6 -
18.08.2019 00:00:00 20,9 17,9 5 3 SW 1011,1 -
17.08.2019 23:00:00 20,3 18,1 8 4 SSE 1011,6 25
17.08.2019 22:00:00 21,2 17,8 8 4 ESE 1012,0 -
17.08.2019 21:00:00 24,2 18,8 5 3 NNE 1012,0 -
17.08.2019 20:00:00 25,7 18,6 5 3 E 1012,0 30
17.08.2019 19:00:00 26,1 18,4 9 5 E 1012,1 -
17.08.2019 18:00:00 25,7 18,6 8 4 ENE 1012,7 -
17.08.2019 17:00:00 26,1 18,8 8 4 NE 1012,8 30
17.08.2019 16:00:00 25,7 18,2 9 5 N 1013,4 -
17.08.2019 15:00:00 25,9 18,2 8 4 NNW 1013,9 -
17.08.2019 14:00:00 26,0 18,1 8 4 N 1014,1 30
17.08.2019 13:00:00 25,8 17,0 8 4 N 1014,4 -
17.08.2019 12:00:00 26,4 17,1 8 4 NW 1014,6 -
17.08.2019 11:00:00 24,5 17,5 9 5 SW 1014,9 30
17.08.2019 10:00:00 21,0 16,7 13 7 SW 1015,4 -
17.08.2019 09:00:00 18,3 16,3 13 7 SW 1015,5 -
17.08.2019 08:00:00 16,5 15,5 13 7 SW 1015,6 25
17.08.2019 07:00:00 16,5 15,9 9 5 SSW 1015,7 -
17.08.2019 06:00:00 16,7 15,6 4 2 SW 1015,4 -
17.08.2019 05:00:00 17,1 16,1 9 5 WSW 1015,7 -
17.08.2019 04:00:00 17,6 16,1 13 7 SSW 1015,7 -
17.08.2019 03:00:00 17,6 16,1 13 7 SW 1016,0 -
17.08.2019 02:00:00 17,8 16,1 9 5 SSW 1016,7 25
17.08.2019 01:00:00 17,6 15,9 13 7 S 1017,1 -
17.08.2019 00:00:00 17,7 16,0 9 5 S 1017,4 -
16.08.2019 23:00:00 17,6 16,0 0 0 N 1017,8 25
16.08.2019 22:00:00 18,6 16,0 4 2 S 1017,4 -
16.08.2019 21:00:00 20,1 16,3 5 3 NW 1017,4 -
16.08.2019 20:00:00 20,1 15,8 5 3 W 1017,2 30

tt = temperature
td = dewpoint
ff = wind speed
dd = wind direction
ppp = reduced air pressure
vv = visibility

Next stations